[[{"header":{"parameterUnit":"m.s-1","parameterCategory":1,"la1":30.2991,"la2":30.254,"lo1":-89.0895,"lo2":-89.0444,"dy":0.0017,"dx":0.0017,"nx":28,"ny":28,"refTime":"2025-07-24T21:00:00:Z","depth":0,"parameterNumber":2,"parameterNumberName":"U-component_of_WINDS"},"data":[0,0,0,0,0,0,0,0,0,0,0,0,0,0,0,0,0,0,0,0,0,0,0,0,0,0,0,0,0,0,0,0,0,0,0,0,0,0,0,0,0,0,0,0,0,0,0,0,0,0,0,0,0,0,0,0,0,0,-3.5958,-3.5958,0,-3.6002,-3.6003,-3.6003,-3.6017,-3.6017,-3.6017,-3.6017,-3.606,-3.6061,-3.6062,0,0,0,0,0,0,0,0,0,0,0,0,0,-3.5882,-3.5883,-3.5958,-3.5958,-3.5959,-3.6002,-3.6003,-3.6004,-3.6017,-3.6017,-3.6017,-3.6016,-3.6059,-3.6061,-3.6062,0,0,0,0,0,0,0,0,0,0,0,0,0,-3.5919,-3.5884,-3.5958,-3.5971,-3.5973,-3.6002,-3.6003,-3.6004,-3.6017,-3.6017,-3.6017,-3.6016,-3.6059,-3.6061,-3.6063,-3.6081,0,0,-3.6069,-3.607,0,0,0,0,0,0,0,0,-3.5917,-3.5922,-3.5968,-3.597,-3.5972,-3.6004,-3.5992,-3.603,-3.6017,-3.6,-3.6017,-3.6016,-3.6041,-3.6045,-3.6054,-3.6083,-3.6085,-3.6069,-3.607,-3.6071,-3.6072,0,0,0,0,0,0,0,-3.5915,-3.592,-3.5975,-3.5969,-3.5971,-3.5974,-3.5979,-3.5999,-3.6022,-3.6002,-3.6003,-3.6008,-3.6042,-3.6052,-3.6055,-3.6086,-3.6069,-3.6071,-3.6072,-3.6073,-3.6133,-3.6134,0,0,0,0,0,0,-3.591,-3.5918,-3.5974,-3.5977,-3.5943,-3.5976,-3.5981,-3.5994,-3.6022,-3.6026,-3.6008,-3.6009,-3.6048,-3.6052,-3.6056,-3.608,-3.6071,-3.6073,-3.6074,-3.6133,-3.6134,-3.6134,0,0,0,0,0,0,-3.5909,-3.5915,-3.5972,-3.5948,-3.5955,-3.5977,-3.5992,-3.5995,-3.6005,-3.6027,-3.6031,-3.6014,-3.6048,-3.6053,-3.6075,-3.6082,-3.6074,-3.6076,-3.6133,-3.6133,-3.6134,-3.6128,0,0,0,0,0,0,-3.5906,-3.5914,-3.5922,-3.5948,-3.5957,-3.5991,-3.5992,-3.5996,-3.6008,-3.6009,-3.6033,-3.6037,-3.6048,-3.6072,-3.6077,-3.6084,-3.6077,-3.6132,-3.6133,-3.6134,-3.6127,-3.6128,-3.6129,0,0,0,0,0,-3.5904,-3.5918,-3.5923,-3.5929,-3.5967,-3.5991,-3.5996,-3.601,-3.6009,-3.6017,-3.6031,-3.6036,-3.608,-3.6074,-3.608,-3.6088,-3.6132,-3.6133,-3.6133,-3.6127,-3.6128,-3.6129,0,0,0,0,0,0,-3.5891,-3.5922,-3.5927,-3.595,-3.5968,-3.5994,-3.6004,-3.601,-3.6028,-3.6028,-3.6044,-3.6049,-3.607,-3.6081,-3.6074,-3.6108,-3.6106,-3.6108,-3.6099,-3.61,-3.6101,-3.6097,-3.6079,0,0,0,0,0,-3.5892,-3.591,-3.5935,-3.5953,-3.5962,-3.5981,-3.5993,-3.6002,-3.6021,-3.6028,-3.6044,-3.6061,-3.6079,-3.609,-3.6108,-3.6129,-3.6135,-3.6138,-3.6138,-3.6139,-3.614,-3.6152,-3.6154,-3.6137,-3.6137,-3.6137,0,0,-3.5892,-3.5911,-3.5921,-3.5951,-3.5966,-3.5984,-3.5988,-3.6006,-3.6019,-3.603,-3.6052,-3.6065,-3.6085,-3.6107,-3.6117,-3.6117,-3.6146,-3.614,-3.614,-3.6141,-3.6153,-3.6155,-3.6156,-3.6138,-3.6137,-3.6137,0,0,-3.5902,-3.5918,-3.5935,-3.595,-3.5973,-3.5986,-3.599,-3.6015,-3.6024,-3.6046,-3.6055,-3.6071,-3.6101,-3.6115,-3.6127,-3.6142,-3.6148,-3.6148,-3.615,-3.6162,-3.6163,-3.6165,-3.617,-3.6172,-3.6149,-3.6149,-3.6149,0,-3.5899,-3.5927,-3.5943,-3.5961,-3.5974,-3.5986,-3.6003,-3.6017,-3.6044,-3.6052,-3.6052,-3.6091,-3.6106,-3.6131,-3.6135,-3.6144,-3.6148,-3.6145,-3.6162,-3.6163,-3.6165,-3.617,-3.6172,-3.6149,-3.6149,-3.6149,-3.6149,0,-3.5922,-3.5941,-3.5952,-3.5979,-3.5993,-3.6011,-3.6029,-3.6041,-3.6049,-3.6062,-3.6085,-3.6103,-3.6124,-3.6131,-3.6139,-3.6158,-3.6157,-3.6159,-3.6158,-3.6166,-3.6171,-3.6173,-3.6149,-3.6149,-3.6149,-3.6149,0,0,-3.5925,-3.5961,-3.5965,-3.5977,-3.6004,-3.6019,-3.6037,-3.6059,-3.6069,-3.6087,-3.6102,-3.6128,-3.6131,-3.6144,-3.6153,-3.6164,-3.6175,-3.6165,-3.6165,-3.6166,-3.6196,-3.6194,-3.6196,-3.6179,-3.6179,-3.618,-3.6194,0,-3.5938,-3.5971,-3.5986,-3.6012,-3.603,-3.6042,-3.6058,-3.6076,-3.6088,-3.6104,-3.6118,-3.6136,-3.6138,-3.6146,-3.6157,-3.6171,-3.6181,-3.617,-3.6192,-3.6193,-3.6186,-3.6199,-3.6196,-3.6209,-3.6196,-3.6197,-3.6197,0,-3.5957,-3.5976,-3.6005,-3.603,-3.6038,-3.6051,-3.6073,-3.6089,-3.6109,-3.6117,-3.6132,-3.6141,-3.616,-3.6158,-3.6184,-3.6176,-3.6186,-3.6195,-3.6196,-3.6198,-3.6195,-3.6201,-3.6214,-3.6215,-3.6201,-3.62,-3.62,0,-3.5956,-3.5989,-3.601,-3.6021,-3.605,-3.6059,-3.6072,-3.6092,-3.6105,-3.6123,-3.6131,-3.6152,-3.6163,-3.6178,-3.6193,-3.619,-3.6217,-3.6216,-3.6224,-3.6223,-3.6228,-3.6228,-3.6243,-3.6236,-3.6236,-3.6236,-3.6236,0,-3.5968,-3.5985,-3.601,-3.6023,-3.6042,-3.6059,-3.6077,-3.6091,-3.6108,-3.6124,-3.6136,-3.615,-3.6168,-3.6184,-3.6196,-3.6216,-3.622,-3.6227,-3.623,-3.6226,-3.6225,-3.6232,-3.6231,-3.6236,-3.6236,-3.6236,-3.6236,0,-3.5969,-3.5987,-3.6011,-3.6038,-3.6045,-3.6057,-3.608,-3.6092,-3.6106,-3.6125,-3.6131,-3.6151,-3.6171,-3.6187,-3.6213,-3.6221,-3.6241,-3.6245,-3.6235,-3.6236,-3.6243,-3.6242,-3.6262,-3.6266,-3.6257,-3.6257,-3.6257,0,-3.5976,-3.5989,-3.6017,-3.6029,-3.6042,-3.606,-3.6073,-3.609,-3.6103,-3.6127,-3.6137,-3.6158,-3.6176,-3.6207,-3.6224,-3.6244,-3.6247,-3.6253,-3.625,-3.6246,-3.6247,-3.6246,-3.6247,-3.6253,-3.6253,-3.6253,-3.6253,0,-3.5985,-3.5994,-3.6013,-3.6034,-3.605,-3.6068,-3.6086,-3.6094,-3.6115,-3.6129,-3.615,-3.6163,-3.619,-3.6211,-3.6232,-3.6245,-3.6252,-3.6254,-3.6257,-3.6253,-3.6246,-3.6249,-3.6235,-3.6253,-3.6253,-3.6253,-3.6253,-3.6253,-3.599,-3.6002,-3.6024,-3.6044,-3.606,-3.6076,-3.609,-3.6105,-3.6123,-3.6147,-3.6156,-3.6177,-3.6197,-3.6227,-3.624,-3.6257,-3.6257,-3.6261,-3.6262,-3.6263,-3.6262,-3.6244,-3.6261,-3.6261,-3.6261,-3.6261,-3.6261,0,-3.5999,-3.6014,-3.6033,-3.6058,-3.6074,-3.6081,-3.6101,-3.6114,-3.6133,-3.6151,-3.6169,-3.6193,-3.6213,-3.6232,-3.6253,-3.6262,-3.6266,-3.6267,-3.6266,-3.6269,-3.626,-3.6256,-3.6263,-3.6263,-3.6263,-3.6263,-3.6263,-3.6263,-3.6006,-3.6028,-3.6039,-3.6068,-3.6082,-3.6104,-3.6115,-3.613,-3.6145,-3.6171,-3.6189,-3.6201,-3.622,-3.6242,-3.6261,-3.6266,-3.6273,-3.6272,-3.6278,-3.627,-3.6269,-3.6269,-3.6265,-3.6274,-3.6274,-3.6285,-3.6285,-3.6285]},{"header":{"parameterUnit":"m.s-1","parameterCategory":1,"la1":30.2991,"la2":30.254,"lo1":-89.0895,"lo2":-89.0444,"dy":0.0017,"dx":0.0017,"nx":28,"ny":28,"refTime":"2025-07-24T21:00:00:Z","depth":0,"parameterNumber":3,"parameterNumberName":"V-component_of_WINDS"},"data":[0,0,0,0,0,0,0,0,0,0,0,0,0,0,0,0,0,0,0,0,0,0,0,0,0,0,0,0,0,0,0,0,0,0,0,0,0,0,0,0,0,0,0,0,0,0,0,0,0,0,0,0,0,0,0,0,0,0,2.2258,2.2258,0,2.2288,2.2288,2.2288,2.2312,2.2312,2.2313,2.2313,2.2343,2.2343,2.2344,0,0,0,0,0,0,0,0,0,0,0,0,0,2.2222,2.2222,2.2258,2.2258,2.2259,2.2288,2.2288,2.2289,2.2312,2.2312,2.2313,2.2313,2.2343,2.2343,2.2344,0,0,0,0,0,0,0,0,0,0,0,0,0,2.2243,2.2222,2.2258,2.2274,2.2276,2.2288,2.2288,2.2289,2.2312,2.2312,2.2313,2.2313,2.2342,2.2343,2.2344,2.2342,0,0,2.2347,2.2347,0,0,0,0,0,0,0,0,2.2242,2.2244,2.2271,2.2273,2.2275,2.2297,2.2286,2.2307,2.2312,2.2298,2.2313,2.2313,2.2327,2.2329,2.2334,2.2344,2.2345,2.2347,2.2347,2.2348,2.2348,0,0,0,0,0,0,0,2.224,2.2243,2.227,2.2271,2.2274,2.228,2.2283,2.229,2.231,2.2299,2.2301,2.2304,2.2328,2.2333,2.2335,2.2346,2.2347,2.2348,2.2348,2.2348,2.2357,2.2357,0,0,0,0,0,0,2.2236,2.2242,2.2269,2.2271,2.2259,2.228,2.2284,2.2289,2.231,2.2314,2.2304,2.2305,2.2331,2.2334,2.2336,2.2336,2.2348,2.2349,2.2349,2.2357,2.2357,2.2357,0,0,0,0,0,0,2.2235,2.2238,2.2268,2.2257,2.2261,2.228,2.2286,2.229,2.2295,2.2314,2.2317,2.2305,2.2332,2.2335,2.2341,2.2338,2.2349,2.235,2.2358,2.2357,2.2357,2.2336,0,0,0,0,0,0,2.2234,2.2238,2.2237,2.2257,2.2261,2.2272,2.2286,2.229,2.2296,2.2298,2.2316,2.2319,2.2332,2.234,2.2342,2.2339,2.235,2.2358,2.2358,2.2357,2.2337,2.2335,2.2333,0,0,0,0,0,2.2233,2.223,2.2237,2.224,2.2261,2.2271,2.2274,2.2289,2.2296,2.2295,2.2308,2.2319,2.2338,2.234,2.2343,2.234,2.2358,2.2358,2.2357,2.2338,2.2336,2.2333,0,0,0,0,0,0,2.2209,2.2233,2.2241,2.2244,2.2256,2.2275,2.2275,2.2286,2.2296,2.2297,2.2315,2.2319,2.2324,2.2333,2.2335,2.2341,2.235,2.2349,2.2334,2.2332,2.233,2.2328,2.2351,0,0,0,0,0,2.2204,2.2211,2.2231,2.2232,2.2237,2.2255,2.226,2.2271,2.2284,2.2289,2.2302,2.2314,2.2323,2.2328,2.2337,2.2339,2.2344,2.2339,2.2337,2.2335,2.2335,2.2337,2.2336,2.2355,2.2355,2.2355,0,0,2.2194,2.2208,2.2211,2.2228,2.2238,2.2244,2.2259,2.2265,2.2271,2.229,2.2297,2.2307,2.2321,2.2326,2.2328,2.2333,2.2331,2.2334,2.2333,2.2333,2.2337,2.2335,2.2333,2.2354,2.2354,2.2354,0,0,2.2179,2.219,2.2192,2.2203,2.2219,2.2231,2.2231,2.225,2.2258,2.2265,2.228,2.2287,2.2301,2.2311,2.2318,2.2309,2.232,2.2312,2.2301,2.2303,2.2302,2.2301,2.2298,2.2297,2.2311,2.2311,2.2311,0,2.2165,2.2175,2.2192,2.2198,2.2205,2.2224,2.2227,2.2236,2.2253,2.2258,2.2264,2.2283,2.2294,2.2302,2.23,2.2305,2.2306,2.2309,2.2301,2.23,2.2299,2.2296,2.2295,2.231,2.231,2.231,2.231,0,2.2157,2.2164,2.2164,2.2181,2.2189,2.2193,2.2211,2.2216,2.2227,2.2239,2.2247,2.2261,2.2274,2.2277,2.2287,2.2286,2.2289,2.2297,2.2307,2.2296,2.2294,2.2293,2.2308,2.2309,2.2309,2.2309,0,0,2.2126,2.2154,2.2154,2.2163,2.2182,2.2188,2.2194,2.2207,2.2211,2.2223,2.2229,2.2242,2.225,2.2258,2.227,2.2272,2.2265,2.2281,2.2281,2.2277,2.2266,2.2259,2.2258,2.2272,2.2272,2.2272,2.2265,0,2.2115,2.2126,2.2142,2.2147,2.2155,2.2173,2.2178,2.2191,2.2203,2.2211,2.2224,2.2233,2.2243,2.2248,2.2251,2.2265,2.2263,2.2266,2.2278,2.2278,2.2273,2.2257,2.225,2.2242,2.2264,2.2264,2.2264,0,2.2102,2.2114,2.212,2.214,2.2144,2.2148,2.2162,2.217,2.2185,2.2193,2.2203,2.2216,2.2224,2.2233,2.2244,2.2245,2.2252,2.2259,2.2259,2.2261,2.227,2.2258,2.224,2.2238,2.2263,2.2263,2.2263,0,2.208,2.2097,2.2103,2.211,2.2134,2.2136,2.2146,2.2162,2.2169,2.2182,2.2187,2.22,2.2207,2.2217,2.2233,2.2238,2.2243,2.2253,2.225,2.225,2.225,2.2249,2.2232,2.2254,2.2254,2.2254,2.2254,0,2.2065,2.2068,2.2094,2.2098,2.2102,2.2122,2.2126,2.2137,2.2152,2.2158,2.2175,2.2182,2.2203,2.2212,2.2225,2.2233,2.2236,2.2243,2.2246,2.2241,2.224,2.2245,2.2246,2.2254,2.2254,2.2254,2.2254,0,2.204,2.2057,2.2066,2.2088,2.2094,2.2096,2.2115,2.212,2.2133,2.2142,2.2145,2.2166,2.2177,2.2195,2.2212,2.2221,2.2226,2.2232,2.2221,2.2223,2.222,2.222,2.2205,2.2204,2.2226,2.2226,2.2225,0,2.2029,2.2032,2.2055,2.2061,2.2071,2.208,2.2088,2.2107,2.2115,2.2133,2.2136,2.2149,2.216,2.2178,2.2195,2.2208,2.2214,2.2208,2.2216,2.2212,2.2215,2.2214,2.2215,2.2206,2.2206,2.2205,2.2205,0,2.2008,2.2017,2.2028,2.2042,2.2051,2.2062,2.2075,2.2079,2.2102,2.2109,2.2122,2.2131,2.2148,2.2161,2.2177,2.2188,2.22,2.2203,2.2203,2.2198,2.2191,2.2195,2.2216,2.2203,2.2203,2.2203,2.2203,2.2203,2.199,2.1994,2.2011,2.2023,2.2035,2.2047,2.2053,2.2067,2.2078,2.2094,2.2105,2.2117,2.2134,2.2156,2.2166,2.2176,2.2182,2.2182,2.2182,2.2182,2.218,2.219,2.2179,2.2179,2.218,2.218,2.218,0,2.197,2.1983,2.1993,2.2011,2.202,2.2032,2.2047,2.2054,2.2065,2.2079,2.209,2.2105,2.2118,2.2137,2.2151,2.2156,2.2162,2.2159,2.2159,2.2161,2.2174,2.2173,2.2154,2.2154,2.2154,2.2154,2.2154,2.2154,2.1961,2.1969,2.198,2.1994,2.2007,2.2019,2.2026,2.2038,2.205,2.2065,2.2077,2.2089,2.2105,2.2121,2.2134,2.214,2.2144,2.2139,2.2146,2.2158,2.216,2.2162,2.2161,2.214,2.214,2.2133,2.2133,2.2133]}]]